sat.trackr.live / text

‹ back to catalog

STARLINK-34934

NORAD 65897 · 2025-224R

PAYLOAD ACTIVE UNKNOWN

§ Identity

Operator
Country
US
Launch date
2025-10-07
Launch site
AFETR
Launch vehicle
Mass (kg)
RCS (m²)

Purposes: comms

External: N2YO · Heavens-Above · Gunter

§ Orbital elements

Epoch: 2026-05-25T00:11:54.727584Z

Period
93.85 min
Inclination
53.1595°
Eccentricity
0.0001113
Mean motion
15.34401206 rev/d
Perigee alt
461.9 km
Apogee alt
463.5 km
Semi-major
6,840.8 km
B*
5.0032e-4
RAAN
15.8131°
Arg perigee
81.5252°
Mean anomaly
278.5877°
Rev number
3,652

§ Raw data

STARLINK-349341 65897U 25224R   26145.00827231  .00016566  00000+0  50032-3 0  99972 65897  53.1595  15.8131 0001113  81.5252 278.5877 15.34401206 36529

JSON: /api/v1/satellites/65897 · /tle

For live sub-satellite position, see the globe view (requires WebGL).

§ Visibility from observer

Set your observer location to see the next 7 days of passes ≥ 10°. The values pass through the URL so the page stays shareable.

No JS? Fill the form by hand. The geolocation button needs JavaScript.